| time (UTC) | temp F | wind direction | speed MPH | gust MPH | rain 1hr in | rain 24hr in | rain mn in | humidity % | barometer mb |
| 20260505080053 | 46 | 0 | 0.0 | 0.0 | 0.00 | 0.22 | 0.00 | 87 | 1020.7 |
| 20260505074558 | 45 | 0 | 0.0 | 0.0 | 0.00 | 0.22 | 0.00 | 86 | 1020.4 |
| 20260505073136 | 45 | 0 | 0.0 | 0.0 | 0.00 | 0.22 | 0.00 | 86 | 1020.6 |
| 20260505071602 | 45 | 0 | 0.0 | 0.0 | 0.00 | 0.22 | 0.00 | 86 | 1020.6 |
| 20260505070101 | 45 | 0 | 0.0 | 0.0 | 0.00 | 0.22 | 0.00 | 86 | 1020.7 |
| 20260505064552 | 46 | 0 | 0.0 | 0.0 | 0.00 | 0.22 | 0.00 | 86 | 1020.6 |
| 20260505063053 | 45 | 0 | 0.0 | 0.0 | 0.00 | 0.22 | 0.00 | 85 | 1020.8 |
| 20260505061552 | 45 | 0 | 0.0 | 0.0 | 0.00 | 0.22 | 0.00 | 85 | 1020.6 |
| 20260505060058 | 45 | 0 | 0.0 | 0.0 | 0.00 | 0.22 | 0.00 | 85 | 1020.7 |
| 20260505054549 | 46 | 0 | 0.0 | 0.0 | 0.01 | 0.22 | 0.22 | 84 | 1020.8 |
| 20260505053056 | 46 | 0 | 0.0 | 0.0 | 0.01 | 0.22 | 0.22 | 84 | 1020.7 |
| 20260505051558 | 46 | 0 | 0.0 | 0.0 | 0.01 | 0.22 | 0.22 | 83 | 1020.6 |
| 20260505041549 | 46 | 0 | 0.0 | 3.0 | 0.12 | 0.21 | 0.21 | 82 | 1021.1 |
| 20260505040051 | 47 | 0 | 0.0 | 2.0 | 0.17 | 0.21 | 0.21 | 81 | 1021.3 |
| 20260505034554 | 48 | 266 | 0.0 | 1.0 | 0.18 | 0.20 | 0.20 | 80 | 1021.1 |
| 20260505033049 | 48 | 242 | 1.0 | 4.0 | 0.12 | 0.14 | 0.14 | 79 | 1021.6 |
| 20260505031554 | 49 | 264 | 1.0 | 11.0 | 0.07 | 0.09 | 0.09 | 76 | 1021.3 |
| 20260505030055 | 51 | 285 | 1.0 | 5.0 | 0.02 | 0.04 | 0.04 | 73 | 1020.9 |
| 20260505024600 | 51 | 360 | 0.0 | 4.0 | 0.00 | 0.02 | 0.02 | 68 | 1020.5 |
| 20260505023054 | 52 | 302 | 0.0 | 4.0 | 0.00 | 0.02 | 0.02 | 65 | 1020.1 |
| 20260505021551 | 53 | 0 | 0.0 | 4.0 | 0.00 | 0.02 | 0.02 | 63 | 1019.9 |
| 20260505020051 | 54 | 0 | 1.0 | 6.0 | 0.00 | 0.02 | 0.02 | 59 | 1019.8 |
| 20260505014551 | 55 | 0 | 0.0 | 2.0 | 0.00 | 0.02 | 0.02 | 55 | 1019.8 |
| 20260505013116 | 56 | 0 | 0.0 | 1.0 | 0.00 | 0.02 | 0.02 | 54 | 1019.1 |
| 20260505011554 | 56 | 0 | 0.0 | 1.0 | 0.00 | 0.02 | 0.02 | 53 | 1019.5 |
| 20260505004552 | 57 | 0 | 1.0 | 8.0 | 0.00 | 0.02 | 0.02 | 51 | 1019.4 |
| 20260505003053 | 59 | 0 | 1.0 | 3.0 | 0.00 | 0.02 | 0.02 | 49 | 1019.3 |
| 20260505001548 | 59 | 0 | 0.0 | 2.0 | 0.00 | 0.02 | 0.02 | 45 | 1019.4 |
| 20260505000059 | 60 | 0 | 0.0 | 4.0 | 0.00 | 0.02 | 0.02 | 45 | 1018.9 |
| 20260504234549 | 60 | 236 | 1.0 | 7.0 | 0.00 | 0.02 | 0.02 | 45 | 1018.6 |
| 20260504233055 | 60 | 313 | 2.0 | 10.0 | 0.00 | 0.02 | 0.02 | 45 | 1018.4 |
| 20260504231548 | 60 | 268 | 2.0 | 7.0 | 0.00 | 0.02 | 0.02 | 43 | 1018.4 |
| 20260504230059 | 60 | 259 | 1.0 | 5.0 | 0.00 | 0.02 | 0.02 | 43 | 1018.3 |
| 20260504224552 | 61 | 259 | 2.0 | 11.0 | 0.00 | 0.02 | 0.02 | 43 | 1018.3 |
| 20260504223100 | 60 | 286 | 2.0 | 8.0 | 0.00 | 0.02 | 0.02 | 41 | 1018.4 |
| 20260504221550 | 60 | 256 | 1.0 | 9.0 | 0.00 | 0.02 | 0.02 | 41 | 1018.3 |
| 20260504220052 | 62 | 283 | 2.0 | 7.0 | 0.00 | 0.02 | 0.02 | 39 | 1018.0 |
| 20260504214607 | 64 | 202 | 2.0 | 9.0 | 0.00 | 0.02 | 0.02 | 36 | 1017.4 |
| 20260504213058 | 67 | 278 | 2.0 | 10.0 | 0.00 | 0.02 | 0.02 | 32 | 1017.1 |
| 20260504211554 | 66 | 130 | 1.0 | 4.0 | 0.00 | 0.02 | 0.02 | 32 | 1017.1 |
| 20260504210058 | 66 | 139 | 0.0 | 2.0 | 0.00 | 0.02 | 0.02 | 35 | 1017.1 |
| 20260504204553 | 67 | 98 | 2.0 | 4.0 | 0.00 | 0.02 | 0.02 | 34 | 1017.5 |
| 20260504203053 | 63 | 111 | 0.0 | 3.0 | 0.00 | 0.02 | 0.02 | 41 | 1017.7 |
| 20260504201601 | 61 | 0 | 1.0 | 5.0 | 0.02 | 0.02 | 0.02 | 41 | 1018.3 |
| 20260504200053 | 60 | 301 | 2.0 | 4.0 | 0.02 | 0.02 | 0.02 | 48 | 1018.9 |
| 20260504194554 | 59 | 94 | 2.0 | 8.0 | 0.02 | 0.02 | 0.02 | 55 | 1018.2 |
| 20260504193052 | 60 | 111 | 2.0 | 8.0 | 0.02 | 0.02 | 0.02 | 52 | 1018.8 |
| 20260504191558 | 65 | 75 | 2.0 | 11.0 | 0.00 | 0.00 | 0.00 | 40 | 1018.4 |
| 20260504190112 | 68 | 133 | 2.0 | 8.0 | 0.00 | 0.00 | 0.00 | 22 | 1017.4 |
| 20260504184613 | 69 | 0 | 0.0 | 4.0 | 0.00 | 0.00 | 0.00 | 22 | 1017.1 |
| 20260504183052 | 69 | 0 | 0.0 | 7.0 | 0.00 | 0.00 | 0.00 | 22 | 1017.2 |
| 20260504181552 | 69 | 0 | 1.0 | 5.0 | 0.00 | 0.00 | 0.00 | 22 | 1017.1 |
| 20260504180054 | 70 | 0 | 0.0 | 8.0 | 0.00 | 0.00 | 0.00 | 23 | 1017.2 |
| 20260504174554 | 71 | 0 | 1.0 | 4.0 | 0.00 | 0.00 | 0.00 | 22 | 1017.5 |
| 20260504173057 | 73 | 325 | 1.0 | 7.0 | 0.00 | 0.00 | 0.00 | 21 | 1017.8 |
| 20260504171605 | 73 | 67 | 1.0 | 6.0 | 0.00 | 0.00 | 0.00 | 24 | 1017.9 |
| 20260504140110 | 54 | 0 | 0.0 | 3.0 | 0.00 | 0.00 | 0.00 | 34 | 1019.3 |
| 20260504120115 | 45 | 0 | 0.0 | 0.0 | 0.00 | 0.00 | 0.00 | 45 | 1018.6 |
| 20260504110104 | 45 | 0 | 0.0 | 3.0 | 0.00 | 0.00 | 0.00 | 48 | 1019.0 |
| 20260504081601 | 50 | 0 | 0.0 | 1.0 | 0.00 | 0.00 | 0.00 | 41 | 1020.1 |